Regional Weather Roundup
Issued by NWS

Home | Current Version | Previous Version | Graphics & Text | Print | Product List | Glossary On
Versions: 1 2 3 4 5 6 7 8 9 10 11 12 13 14 15 16 17 18 19 20 21 22 23 24 25 26 27 28 29 30 31 32 33 34 35 36 37 38 39 40 41 42 43 44 45 46 47 48 49 50
000
ASUS43 KFSD 181202
RWRSD

WEATHER ROUNDUP FOR SOUTH DAKOTA
NATIONAL WEATHER SERVICE SIOUX FALLS SD
600 AM CST WED JAN 18 2017

NOTE: "FAIR" INDICATES FEW OR NO CLOUDS BELOW 12,000 FEET WITH NO
SIGNIFICANT WEATHER AND/OR OBSTRUCTIONS TO VISIBILITY.


SDZ001>005-009-010-012>017-181300-
NORTHWEST AND NORTH CENTRAL SOUTH DAKOTA

CITY           SKY/WX    TMP DP  RH WIND       PRES   REMARKS
BUFFALO          N/A     34  21  59 W10       29.71S WCI  26
FAITH            N/A     27  20  75 SW8       29.79R WCI  19
MOBRIDGE       CLOUDY    17  10  74 E9        29.78R WCI   6
$$

SDZ012>016-024>037-041>051-057-063-072>074-181300-
SOUTHWEST AND SOUTH CENTRAL SOUTH DAKOTA

CITY           SKY/WX    TMP DP  RH WIND       PRES   REMARKS
RAPID CTY ARPT CLOUDY    25  18  74 CALM      29.81F
PIERRE         CLOUDY    23  15  71 SW6       29.82F WCI  16
CUSTER         CLOUDY    34  20  56 W6        29.87F WCI  29
ELLSWORTH AFB  CLEAR     32  21  64 SW7       29.80F WCI  26
PHILIP         CLOUDY    25  18  74 W10       29.82F WCI  15
PINE RIDGE     CLOUDY    32  18  56 W7        29.89F WCI  26
SPEARFISH      FAIR      36  25  64 CALM      29.80F
WINNER         FAIR      30  19  63 S6        29.86F WCI  24
$$

SDZ004>011-016>023-039-040-181300-
NORTHEAST SOUTH DAKOTA

CITY           SKY/WX    TMP DP  RH WIND       PRES   REMARKS
ABERDEEN       CLOUDY    17  11  77 SW9       29.83R WCI   6
WATERTOWN      CLOUDY    19  16  88 E3        29.84R
BROOKINGS      CLOUDY    22  20  92 SE7       29.87S WCI  13
SISSETON         N/A     35  22  58 W10       29.77R WCI  27
$$

SDZ017-020-022-023-036>040-048>070-181300-
SOUTHEAST SOUTH DAKOTA

CITY           SKY/WX    TMP DP  RH WIND       PRES   REMARKS
SIOUX FALLS    CLOUDY    23  22  96 N3        29.90F
HURON          CLOUDY    18  16  92 S6        29.86F WCI  10
CHAMBERLAIN    CLOUDY    17  15  91 S3        29.86F
MITCHELL       CLOUDY    23  20  88 S6        29.89F WCI  16
YANKTON        CLOUDY    30  25  80 CALM      29.91S
$$

ABBREVIATIONS USED IN REMARKS
   TC - TEMPERATURE IN CELSIUS
  WCI - WIND CHILL INDEX
   HX - HEAT INDEX
  VSB - VISIBILITY





USA.gov is the U.S. government's official web portal to all federal, state and local government web resources and services.